[[{"header":{"parameterUnit":"m.s-1","parameterCategory":1,"la1":30.2991,"la2":30.254,"lo1":-89.0895,"lo2":-89.0444,"dy":0.0017,"dx":0.0017,"nx":28,"ny":28,"refTime":"2024-08-14T03:00:00:Z","depth":0,"parameterNumber":2,"parameterNumberName":"U-component_of_WINDS"},"data":[0,0,0,0,0,0,0,0,0,0,0,0,0,0,0,0,0,0,0,0,0,0,0,0,0,0,0,0,0,0,0,0,0,0,0,0,0,0,0,0,0,0,0,0,0,0,0,0,0,0,0,0,0,0,0,0,0,0,2.6536,2.6536,0,2.66,2.66,2.6601,2.6554,2.6551,2.6549,2.6547,2.6613,2.6617,2.6621,0,0,0,0,0,0,0,0,0,0,0,0,0,2.6371,2.6374,2.6536,2.6536,2.6537,2.66,2.66,2.6601,2.6554,2.6551,2.6549,2.6546,2.6612,2.6617,2.6621,0,0,0,0,0,0,0,0,0,0,0,0,0,2.6439,2.6375,2.6536,2.6521,2.652,2.6599,2.66,2.6602,2.6554,2.6551,2.6548,2.6545,2.6611,2.6616,2.6622,2.6718,0,0,2.6638,2.6641,0,0,0,0,0,0,0,0,2.6435,2.6445,2.6522,2.6522,2.6522,2.6565,2.6566,2.6641,2.6555,2.6542,2.6547,2.6544,2.66,2.6606,2.6625,2.6721,2.6724,2.6639,2.6642,2.6645,2.6646,0,0,0,0,0,0,0,2.6431,2.6442,2.6561,2.6524,2.6523,2.6511,2.6517,2.658,2.6588,2.6543,2.6539,2.6547,2.6599,2.662,2.6626,2.6725,2.6639,2.6644,2.6647,2.6649,2.69,2.6903,0,0,0,0,0,0,2.6427,2.6439,2.6559,2.6563,2.647,2.6516,2.6523,2.6555,2.6587,2.6589,2.655,2.6545,2.6612,2.662,2.6628,2.6741,2.6645,2.665,2.6653,2.6897,2.6901,2.6904,0,0,0,0,0,0,2.6424,2.6439,2.6556,2.65,2.6514,2.6523,2.6558,2.6557,2.6578,2.6592,2.6593,2.657,2.661,2.6621,2.6695,2.6742,2.6652,2.6657,2.6893,2.6898,2.6902,2.6968,0,0,0,0,0,0,2.642,2.6438,2.6475,2.6501,2.6517,2.6623,2.6561,2.6561,2.6588,2.6582,2.6611,2.6613,2.6608,2.6687,2.6701,2.6748,2.6662,2.6888,2.6895,2.6901,2.6962,2.6974,2.6986,0,0,0,0,0,2.6414,2.6492,2.6477,2.6492,2.6564,2.6626,2.6635,2.6627,2.6592,2.6629,2.6637,2.6612,2.6736,2.6695,2.671,2.676,2.6885,2.6893,2.69,2.6956,2.6972,2.6985,0,0,0,0,0,0,2.6472,2.6495,2.6479,2.6568,2.6595,2.6618,2.6664,2.6645,2.6683,2.6676,2.6665,2.6672,2.675,2.6763,2.6718,2.6853,2.6805,2.6815,2.6842,2.6857,2.6869,2.6863,2.6666,0,0,0,0,0,2.6495,2.6544,2.6561,2.6638,2.6652,2.6656,2.6683,2.6674,2.6702,2.6713,2.6728,2.6755,2.68,2.683,2.6872,2.6964,2.6968,2.7005,2.7017,2.7027,2.7036,2.7082,2.7098,2.6929,2.6929,2.6929,0,0,2.6544,2.6562,2.6594,2.665,2.667,2.6719,2.6666,2.6721,2.6757,2.6722,2.6792,2.6804,2.6834,2.6916,2.6954,2.693,2.7083,2.7037,2.7044,2.7048,2.7091,2.7107,2.7121,2.6934,2.6933,2.6932,0,0,2.6657,2.6677,2.6741,2.6762,2.6792,2.6794,2.6809,2.6834,2.684,2.691,2.6884,2.6926,2.7004,2.7026,2.7047,2.7165,2.7142,2.7179,2.7241,2.7286,2.7299,2.7311,2.735,2.7365,2.7188,2.7188,2.7189,0,2.6713,2.6786,2.6777,2.6833,2.6857,2.6827,2.689,2.6911,2.6954,2.6971,2.6944,2.7038,2.7057,2.7142,2.7171,2.719,2.7206,2.7175,2.7298,2.731,2.7321,2.7358,2.7373,2.7192,2.7192,2.7192,2.7191,0,2.6852,2.6903,2.6952,2.6992,2.7022,2.7082,2.7081,2.7112,2.7101,2.7105,2.7175,2.7196,2.724,2.726,2.7251,2.7344,2.7327,2.73,2.725,2.7341,2.7375,2.739,2.7198,2.7197,2.7196,2.7195,0,0,2.7004,2.7036,2.7054,2.7071,2.7101,2.714,2.7198,2.724,2.7266,2.7296,2.7342,2.7408,2.7381,2.7405,2.7397,2.7437,2.7525,2.7404,2.7404,2.7423,2.7626,2.7644,2.7661,2.7511,2.7514,2.7516,2.7622,0,2.7115,2.7215,2.7207,2.7301,2.7346,2.7317,2.7367,2.739,2.7395,2.7434,2.7439,2.7484,2.7448,2.7461,2.75,2.7507,2.7565,2.7499,2.7552,2.7554,2.7543,2.768,2.7701,2.78,2.7636,2.7638,2.764,0,2.7259,2.7292,2.739,2.7411,2.7429,2.7474,2.7511,2.7549,2.7574,2.7574,2.76,2.7585,2.7641,2.7591,2.7668,2.7623,2.7644,2.7651,2.7654,2.7657,2.7601,2.7683,2.7831,2.7845,2.7662,2.766,2.7658,0,2.7355,2.7425,2.7492,2.7508,2.7534,2.7566,2.7578,2.76,2.7625,2.7657,2.7672,2.7711,2.7732,2.7762,2.7757,2.7722,2.7833,2.7784,2.7834,2.7834,2.7857,2.7855,2.8007,2.7875,2.7875,2.7875,2.7874,0,2.748,2.754,2.7535,2.7576,2.7642,2.7632,2.7697,2.7706,2.7725,2.7766,2.7744,2.7783,2.7775,2.7814,2.781,2.7872,2.7882,2.7883,2.7881,2.7884,2.7883,2.7896,2.7888,2.7879,2.7878,2.7877,2.7876,0,2.7598,2.7598,2.7668,2.7686,2.7692,2.774,2.7755,2.7793,2.7795,2.7847,2.7859,2.7863,2.7907,2.7905,2.7955,2.7953,2.8028,2.8019,2.8019,2.8016,2.8064,2.8059,2.8228,2.8248,2.8106,2.8107,2.8108,0,2.7676,2.7721,2.7744,2.7769,2.7783,2.7825,2.785,2.7841,2.7868,2.7898,2.7931,2.7973,2.8005,2.8077,2.8083,2.8121,2.8111,2.8168,2.8117,2.8117,2.8108,2.8105,2.8108,2.8177,2.8179,2.818,2.8181,0,2.7813,2.781,2.7846,2.7882,2.7911,2.7939,2.7965,2.7987,2.7981,2.8012,2.8055,2.808,2.813,2.8171,2.8206,2.8218,2.8198,2.8198,2.821,2.8212,2.8209,2.8208,2.8043,2.8193,2.8192,2.8191,2.8191,2.819,2.7911,2.7949,2.797,2.801,2.8028,2.8052,2.8087,2.8093,2.8129,2.8169,2.8162,2.821,2.8231,2.8276,2.8292,2.8329,2.8308,2.8328,2.8332,2.8337,2.834,2.8205,2.8336,2.8335,2.8335,2.8335,2.8334,0,2.8045,2.8056,2.8093,2.8128,2.816,2.8138,2.8165,2.8192,2.8234,2.8256,2.8288,2.8337,2.8375,2.8385,2.8421,2.8449,2.844,2.8459,2.8455,2.8458,2.8358,2.8342,2.8465,2.8465,2.8465,2.8465,2.8464,2.8464,2.8117,2.8179,2.8178,2.8247,2.8258,2.8304,2.8321,2.8342,2.8358,2.8413,2.8445,2.8451,2.8467,2.8504,2.8538,2.854,2.8553,2.8574,2.8572,2.8478,2.8465,2.8453,2.8437,2.8578,2.8578,2.8668,2.8669,2.8669]},{"header":{"parameterUnit":"m.s-1","parameterCategory":1,"la1":30.2991,"la2":30.254,"lo1":-89.0895,"lo2":-89.0444,"dy":0.0017,"dx":0.0017,"nx":28,"ny":28,"refTime":"2024-08-14T03:00:00:Z","depth":0,"parameterNumber":3,"parameterNumberName":"V-component_of_WINDS"},"data":[0,0,0,0,0,0,0,0,0,0,0,0,0,0,0,0,0,0,0,0,0,0,0,0,0,0,0,0,0,0,0,0,0,0,0,0,0,0,0,0,0,0,0,0,0,0,0,0,0,0,0,0,0,0,0,0,0,0,3.2282,3.2283,0,3.2308,3.2308,3.2308,3.2258,3.2256,3.2254,3.2253,3.2276,3.2278,3.2281,0,0,0,0,0,0,0,0,0,0,0,0,0,3.2187,3.2189,3.2282,3.2283,3.2283,3.2308,3.2308,3.2308,3.2258,3.2256,3.2254,3.2252,3.2276,3.2278,3.2281,0,0,0,0,0,0,0,0,0,0,0,0,0,3.2222,3.219,3.2282,3.2261,3.2259,3.2308,3.2308,3.2308,3.2258,3.2256,3.2253,3.2251,3.2275,3.2278,3.2281,3.2351,0,0,3.2291,3.2292,0,0,0,0,0,0,0,0,3.222,3.2226,3.2264,3.2263,3.2261,3.2277,3.2283,3.2322,3.2259,3.2259,3.2253,3.225,3.2278,3.2281,3.2291,3.2352,3.2353,3.2291,3.2293,3.2295,3.2296,0,0,0,0,0,0,0,3.2218,3.2224,3.2292,3.2264,3.2263,3.2249,3.2251,3.229,3.2282,3.2258,3.2255,3.2259,3.2277,3.2288,3.2291,3.2353,3.2291,3.2294,3.2296,3.2297,3.2469,3.2472,0,0,0,0,0,0,3.2219,3.2223,3.2291,3.2293,3.2234,3.2253,3.2255,3.2274,3.2281,3.228,3.2261,3.2256,3.2284,3.2288,3.2292,3.2372,3.2295,3.2298,3.23,3.2467,3.247,3.2473,0,0,0,0,0,0,3.2217,3.2225,3.229,3.2257,3.2264,3.2257,3.2279,3.2276,3.2287,3.2283,3.2281,3.2274,3.2282,3.2288,3.2336,3.2372,3.2299,3.2302,3.2464,3.2468,3.2471,3.2534,0,0,0,0,0,0,3.2214,3.2225,3.2252,3.2258,3.2266,3.2335,3.2281,3.2278,3.2293,3.2287,3.2295,3.2294,3.2281,3.2332,3.2339,3.2375,3.2305,3.246,3.2465,3.247,3.2529,3.2539,3.2549,0,0,0,0,0,3.2211,3.2269,3.2254,3.2262,3.23,3.2337,3.2342,3.2326,3.2296,3.2323,3.232,3.2294,3.2367,3.2337,3.2345,3.2383,3.2458,3.2464,3.247,3.2524,3.2537,3.2549,0,0,0,0,0,0,3.2267,3.2269,3.2253,3.2314,3.2326,3.2329,3.2362,3.2341,3.2361,3.2355,3.2334,3.2336,3.2388,3.2391,3.2357,3.2449,3.2407,3.2415,3.2446,3.2458,3.2468,3.2466,3.2307,0,0,0,0,0,3.2287,3.2318,3.2317,3.2372,3.2379,3.237,3.2385,3.2372,3.2383,3.2388,3.2388,3.2399,3.2425,3.2442,3.2465,3.2529,3.2529,3.2559,3.2569,3.2577,3.2584,3.2616,3.2628,3.2492,3.2492,3.2492,0,0,3.2327,3.2332,3.2353,3.2383,3.2391,3.2422,3.2374,3.2409,3.2432,3.2393,3.2438,3.2439,3.245,3.2506,3.2531,3.2509,3.2622,3.2585,3.2592,3.2593,3.2623,3.2636,3.2647,3.2496,3.2495,3.2495,0,0,3.2416,3.2425,3.2469,3.2478,3.249,3.2484,3.2494,3.25,3.2499,3.2545,3.2516,3.2542,3.2587,3.2595,3.2605,3.2696,3.2672,3.2705,3.2757,3.2788,3.2799,3.2808,3.2839,3.285,3.2712,3.2712,3.2712,0,3.2465,3.2512,3.2495,3.2532,3.2545,3.2512,3.2556,3.2565,3.2584,3.2593,3.257,3.2624,3.2629,3.2686,3.2708,3.2718,3.2728,3.2703,3.2799,3.2808,3.2817,3.2846,3.2857,3.2715,3.2715,3.2715,3.2714,0,3.257,3.2603,3.2637,3.2656,3.2674,3.2714,3.2702,3.2722,3.2707,3.2702,3.2748,3.2753,3.2776,3.2789,3.2775,3.2843,3.2829,3.2803,3.276,3.2834,3.286,3.2871,3.2721,3.2719,3.2718,3.2717,0,0,3.2695,3.2704,3.2717,3.2724,3.2735,3.2759,3.2797,3.282,3.2836,3.285,3.2881,3.2919,3.2894,3.2906,3.2892,3.292,3.299,3.289,3.289,3.2907,3.3062,3.3081,3.3094,3.2974,3.2976,3.2978,3.3061,0,3.2782,3.2848,3.2834,3.2899,3.2927,3.2895,3.2929,3.2938,3.2935,3.2958,3.2954,3.298,3.2947,3.2953,3.2979,3.2976,3.302,3.297,3.3001,3.3002,3.2997,3.3108,3.3128,3.3206,3.3071,3.3073,3.3075,0,3.2892,3.291,3.2978,3.2982,3.2994,3.3024,3.3043,3.3066,3.3075,3.3071,3.3083,3.3064,3.31,3.3058,3.3107,3.3073,3.3085,3.3085,3.3088,3.3088,3.3041,3.311,3.3231,3.3242,3.3091,3.309,3.3089,0,3.2974,3.3015,3.3061,3.3068,3.3075,3.3097,3.31,3.3107,3.3121,3.3138,3.3146,3.3167,3.3177,3.3193,3.3179,3.315,3.323,3.3187,3.3225,3.3226,3.3242,3.3241,3.3364,3.3253,3.3253,3.3253,3.3252,0,3.3071,3.3113,3.3097,3.3125,3.317,3.3153,3.3198,3.3198,3.3205,3.3231,3.3205,3.323,3.3211,3.3234,3.3224,3.3264,3.327,3.3266,3.3263,3.3268,3.3268,3.3274,3.3267,3.3256,3.3255,3.3255,3.3254,0,3.317,3.3161,3.3208,3.321,3.3212,3.3245,3.3246,3.3271,3.3266,3.3299,3.3306,3.3298,3.3323,3.3311,3.3338,3.3331,3.3383,3.3373,3.338,3.3377,3.3415,3.3411,3.3545,3.3561,3.3441,3.3443,3.3443,0,3.3231,3.3263,3.3269,3.3284,3.329,3.3316,3.333,3.3314,3.3329,3.3342,3.3365,3.3388,3.3406,3.3448,3.3443,3.3463,3.3453,3.3498,3.3455,3.3459,3.3451,3.3448,3.345,3.3506,3.3508,3.3509,3.351,0,3.3341,3.3335,3.3357,3.3377,3.3394,3.3409,3.3421,3.3436,3.3419,3.3438,3.3464,3.3478,3.3505,3.3528,3.3545,3.3548,3.3526,3.3524,3.3533,3.3537,3.3539,3.3537,3.3401,3.352,3.3519,3.3518,3.3518,3.3517,3.3422,3.3448,3.3455,3.348,3.3487,3.3499,3.3522,3.352,3.3541,3.3562,3.3551,3.3581,3.3588,3.3609,3.3615,3.3637,3.3619,3.3633,3.3636,3.364,3.3644,3.3537,3.364,3.364,3.364,3.3639,3.3639,0,3.3529,3.3532,3.3555,3.3573,3.3591,3.357,3.3582,3.3599,3.3626,3.3635,3.3652,3.3681,3.3703,3.37,3.372,3.3738,3.3729,3.3744,3.3741,3.3742,3.366,3.3649,3.3751,3.3751,3.3751,3.3751,3.3751,3.3751,3.3586,3.3628,3.3623,3.3667,3.367,3.3699,3.3708,3.3718,3.3725,3.3758,3.3776,3.3775,3.3778,3.3798,3.3817,3.3815,3.3823,3.3841,3.3836,3.3759,3.3748,3.3737,3.3726,3.3844,3.3844,3.3916,3.3916,3.3917]}]]